Location: Brompton
(51.4000°N, 0.5333°E)
Time: 15:42:54
(UTC+00:00)

Cosmos 2084 - Pass Details

Date: 11 May 2021
Orbit: 541 x 640 km, 62.8° (Epoch: 23 June)

Event Time Altitude Azimuth Distance (km) Brightness Sun altitude
Rises 21:39:51 0° 234° (SW) 2,721 6.8 -14.5°
Reaches altitude 10° 21:42:03 10° 238° (WSW) 1,841 6.0 -14.7°
Maximum altitude 21:46:10 63° 320° (NW) 638 3.9 -15.1°
Drops below altitude 10° 21:50:26 10° 42° (NE) 1,907 6.3 -15.4°
Sets 21:52:44 0° 46° (NE) 2,828 7.1 -15.6°
